Regional Weather Roundup
Issued by NWS

Home | Current Version | Previous Version | Graphics & Text | Print | Product List | Glossary On
Versions: 1 2 3 4 5 6 7 8 9 10 11 12 13 14 15 16 17 18 19 20 21 22 23 24 25 26 27 28 29 30 31 32 33 34 35 36 37 38 39 40 41 42 43 44 45 46 47 48 49 50
354
ASUS43 KBIS 211010
RWRND

NORTH DAKOTA REGIONAL WEATHER ROUNDUP
NATIONAL WEATHER SERVICE BISMARCK ND
400 AM CST WED FEB 21 2018

NOTE: "FAIR" INDICATES FEW OR NO CLOUDS BELOW 12,000 FEET WITH NO
SIGNIFICANT WEATHER AND/OR OBSTRUCTIONS TO VISIBILITY.


NDZ001>003-009>011-017-211100-
NORTHWEST NORTH DAKOTA

CITY           SKY/WX    TMP DP  RH WIND       PRES   REMARKS
WILLISTON      CLEAR     -9 -15  75 S3        30.26S
MINOT          CLEAR      0 -11  59 SW18      30.23S WCI -21
MINOT AFB      CLEAR     -3 -11  66 W12       30.23R WCI -21
$$

NDZ018>021-031>035-040>046-211100-
SOUTHWEST NORTH DAKOTA

CITY           SKY/WX    TMP DP  RH WIND       PRES   REMARKS
BISMARCK       CLEAR     -5 -13  68 SW6       30.34S WCI -18
DICKINSON      CLEAR     -4 -12  68 W16       30.22R WCI -25
GARRISON         N/A     -9 -16  71 S5        30.27R WCI -20
HETTINGER ARPT PTCLDY   -13 -19  75 NW3       30.28S
$$

NDZ004>008-012>016-024-026-027-054-211100-
NORTHEAST NORTH DAKOTA

CITY           SKY/WX    TMP DP  RH WIND       PRES   REMARKS
GRAND FORKS    FAIR       1  -7  68 W10       30.30R WCI -15
DEVILS LAKE    FAIR      -4 -10  75 W14       30.26R WCI -24
$$

NDZ022-023-025-028>030-036>039-047>053-211100-
SOUTHEAST NORTH DAKOTA

CITY           SKY/WX    TMP DP  RH WIND       PRES   REMARKS
FARGO          FAIR      -1  -8  72 SW12      30.37R WCI -18
JAMESTOWN      CLEAR      0  -8  69 W8        30.30R WCI -14
$$





USA.gov is the U.S. government's official web portal to all federal, state and local government web resources and services.